STARLINK-32948, 63123

Orbit data source: Space-Track

STARLINK-32948, 63123 is a payload satellite owned by SpaceX/Seattle (US) in LEO that was launched on Thu, 27 Feb 2025 UTC via an FALCON 9 launch vehicle from the Air Force Eastern Test Range (AFETR). Payload-class satellites include a variety of spacecraft equipped with specific instruments for various scientific and technological missions. These include communications satellites like Starlink; space stations such as the ISS; scientific satellites like the Hubble; Earth observation satellites from companies like Planet Labs, Umbra, and HawkEye 360; GPS; miniature CubeSats for education and research; and military/defense satellites.

Loading next visibility...
Identifier
63123, 2025-039V
Orbit
LEO
Country
Flag of USUS
Related business
Manufacturer
SpaceX/Seattle
Mission
Operational Commercial Communications
Bus & Motor
STARLINK V2M, Unknown motor
Mass
730 kg wet, ~700 kg dry
Launch date (UTC)
2025-02-27 (11 months ago)
Launch vehicle
FALCON 9
Launch site
Air Force Eastern Test Range (AFETR)
Object type
Payload
Rocket body
Debris
Shape & HBR
Box + 2 Pan, 17.7 m
Radar Cross Section
33.884 m², Large (>1 m²)

Expand to show TLE details & history
Last TLE update: 1 day ago

TLE from 1 day ago
0 STARLINK-32948
1 63123U 25039V   26035.90843185  .00048931  00000-0  17742-2 0  9996
2 63123  43.0027 197.8857 0003088 259.2402 100.8102 15.27608674 53052
Epoch: 2026-02-04T21:48Z
TLE epoch observation values (Epoch: 2026-02-04T21:48:08.511Z)
Latitude
-0.00004°
Longitude
95.78193°
Altitude
483.137 km
Speed
7.625 km/s
True Right ascension
13h 11m 32s
True Declination
0° 00' 00"
Sunlit
Object was in full shadow at epoch
Visualization orbit readout
Latitude
Unknown
Longitude
Unknown
Altitude
Unknown
Speed
Unknown
Apparent Right ascension
Unknown
Apparent Declination
Unknown
Sunlit
N/A
Visualization observer readout
Local Sidereal Time
02:51:25
Azimuth
Unknown
Elevation
Unknown
Doppler factor
Unknown
Orbital elements
Apogee altitude
487.027 km
Perigee altitude
482.789 km
Semi-major axis
6,863.045 km
Eccentricity
0.00031
Inclination
43.0027°
RAAN
197.8857°
Arg. of periapsis
259.2402°
True anomaly
100.84496°
Mean anomaly
100.8102°
Eccentric anomaly
100.82758°
Mean motion
3.8174 °/min
Orbital period
94.3 mins
BSTAR
0.0017742
Loading maneuver chart data...
Computing Atmospheric mass density...
Loading historical data...
Loading historical data...
Loading historical data...
Loading historical data...
Loading historical data...
Loading historical data...
Loading historical data...

Documentation

Showing up to 5 results
|